Location: Brantley
(31.5822°N, 86.2569°W)
Time: 13:06:52
(UTC+00:00)

Courier 1B - Pass Details

Date: 20 February 2026
Orbit: 962 x 1208 km, 28.3° (Epoch: 11 March)

Event Time Altitude Azimuth Distance (km) Brightness Sun altitude
Rises 01:07:56 0° 251° (WSW) 3,833 11.9 -20.4°
Reaches altitude 10° 01:10:37 10° 248° (WSW) 2,915 11.0 -20.9°
Maximum altitude 01:17:42 61° 169° (S) 1,265 7.9 -22.5°
Enters shadow 01:20:22 40° 109° (ESE) 1,625 8.1 -23.0°
Drops below altitude 10° 01:25:13 10° 91° (E) 3,087 - -24.1°
Sets 01:28:09 0° 88° (E) 4,074 - -24.7°
